Wetterdaten: Mittwoch, 12.09.2012
Datum Zeit Temperatur Luftfeuchte Luftdruck Regen Wind Richtung Richtung Sonnenschein Taupunkt Windchill
12.09.2012 00:03 13,1 C 76 % 1013,7 hPa 0,0 l/m 2,2 km/h (1 Bft) W-SW 240 0 min 9,0 C 13,1 C
12.09.2012 00:09 13,1 C 75 % 1013,7 hPa 0,0 l/m 0,7 km/h (0 Bft) W-SW 250 0 min 8,8 C 13,1 C
12.09.2012 00:14 13,0 C 75 % 1013,7 hPa 0,0 l/m 0,0 km/h (0 Bft) W-SW 240 0 min 8,7 C 13,0 C
12.09.2012 00:19 13,0 C 75 % 1012,7 hPa 0,0 l/m 0,0 km/h (0 Bft) W-SW 240 0 min 8,7 C 13,0 C
12.09.2012 00:24 13,0 C 74 % 1012,7 hPa 0,0 l/m 0,0 km/h (0 Bft) W-SW 240 0 min 8,5 C 13,0 C
12.09.2012 00:29 13,0 C 74 % 1012,7 hPa 0,0 l/m 0,1 km/h (0 Bft) W-SW 240 0 min 8,5 C 13,0 C
12.09.2012 00:33 13,0 C 74 % 1012,7 hPa 0,0 l/m 0,1 km/h (0 Bft) W-SW 245 0 min 8,5 C 13,0 C
12.09.2012 00:38 12,9 C 74 % 1012,7 hPa 0,0 l/m 0,4 km/h (0 Bft) W-SW 250 0 min 8,4 C 12,9 C
12.09.2012 00:43 12,8 C 74 % 1012,7 hPa 0,0 l/m 0,0 km/h (0 Bft) W-SW 240 0 min 8,3 C 12,8 C
12.09.2012 00:49 12,7 C 74 % 1012,7 hPa 0,0 l/m 0,0 km/h (0 Bft) W-SW 245 0 min 8,2 C 12,7 C
12.09.2012 00:54 12,6 C 74 % 1012,7 hPa 0,0 l/m 6,0 km/h (2 Bft) W-NW 285 0 min 8,1 C 12,6 C
12.09.2012 00:59 12,6 C 74 % 1012,7 hPa 0,0 l/m 5,8 km/h (2 Bft) W-NW 290 0 min 8,1 C 12,6 C
12.09.2012 01:04 12,6 C 74 % 1012,7 hPa 0,0 l/m 4,9 km/h (1 Bft) W 260 0 min 8,1 C 12,6 C
12.09.2012 01:08 12,5 C 74 % 1012,7 hPa 0,0 l/m 4,9 km/h (1 Bft) W-SW 250 0 min 8,0 C 12,5 C
12.09.2012 01:13 12,5 C 74 % 1012,7 hPa 0,0 l/m 3,7 km/h (1 Bft) W-SW 250 0 min 8,0 C 12,5 C
12.09.2012 01:18 12,5 C 74 % 1012,7 hPa 0,0 l/m 4,7 km/h (1 Bft) W-SW 250 0 min 8,0 C 12,5 C
12.09.2012 01:24 12,5 C 74 % 1012,7 hPa 0,0 l/m 0,6 km/h (0 Bft) W-SW 255 0 min 8,0 C 12,5 C
12.09.2012 01:29 12,4 C 74 % 1012,7 hPa 0,0 l/m 0,9 km/h (0 Bft) W-SW 255 0 min 7,9 C 12,4 C
12.09.2012 01:34 12,4 C 74 % 1012,7 hPa 0,0 l/m 0,9 km/h (0 Bft) W-SW 245 0 min 7,9 C 12,4 C
12.09.2012 01:39 12,4 C 74 % 1012,7 hPa 0,0 l/m 0,1 km/h (0 Bft) W-SW 240 0 min 7,9 C 12,4 C
12.09.2012 01:44 12,2 C 74 % 1012,7 hPa 0,0 l/m 0,0 km/h (0 Bft) W-SW 240 0 min 7,7 C 12,2 C
12.09.2012 01:48 12,1 C 74 % 1012,7 hPa 0,0 l/m 0,0 km/h (0 Bft) SW 235 0 min 7,6 C 12,1 C
12.09.2012 01:53 12,0 C 74 % 1012,7 hPa 0,0 l/m 0,0 km/h (0 Bft) SW 235 0 min 7,5 C 12,0 C
12.09.2012 01:59 11,9 C 74 % 1012,7 hPa 0,0 l/m 0,0 km/h (0 Bft) SW 235 0 min 7,4 C 11,9 C
12.09.2012 02:04 11,8 C 74 % 1012,7 hPa 0,0 l/m 0,0 km/h (0 Bft) SW 235 0 min 7,3 C 11,8 C
12.09.2012 02:09 11,6 C 74 % 1012,7 hPa 0,0 l/m 0,0 km/h (0 Bft) SW 235 0 min 7,1 C 11,6 C
12.09.2012 02:14 11,5 C 74 % 1012,7 hPa 0,0 l/m 0,0 km/h (0 Bft) W 265 0 min 7,0 C 11,5 C
12.09.2012 02:19 11,5 C 74 % 1012,7 hPa 0,0 l/m 0,1 km/h (0 Bft) W-SW 255 0 min 7,0 C 11,5 C
12.09.2012 02:23 11,5 C 75 % 1012,7 hPa 0,0 l/m 0,0 km/h (0 Bft) W-SW 250 0 min 7,2 C 11,5 C
12.09.2012 02:28 11,4 C 75 % 1012,7 hPa 0,0 l/m 0,0 km/h (0 Bft) W-SW 250 0 min 7,1 C 11,4 C
12.09.2012 02:33 11,4 C 75 % 1012,7 hPa 0,0 l/m 0,1 km/h (0 Bft) W-SW 250 0 min 7,1 C 11,4 C
12.09.2012 02:39 11,5 C 75 % 1012,7 hPa 0,0 l/m 0,0 km/h (0 Bft) W-SW 255 0 min 7,2 C 11,5 C
12.09.2012 02:44 11,5 C 76 % 1012,7 hPa 0,0 l/m 0,0 km/h (0 Bft) W-SW 250 0 min 7,4 C 11,5 C
12.09.2012 02:49 11,5 C 76 % 1012,7 hPa 0,0 l/m 0,0 km/h (0 Bft) W-SW 250 0 min 7,4 C 11,5 C
12.09.2012 02:54 11,5 C 76 % 1012,7 hPa 0,0 l/m 0,0 km/h (0 Bft) W-SW 250 0 min 7,4 C 11,5 C
12.09.2012 02:58 11,5 C 76 % 1012,7 hPa 0,0 l/m 0,0 km/h (0 Bft) W-SW 250 0 min 7,4 C 11,5 C
12.09.2012 03:03 11,5 C 76 % 1012,7 hPa 0,0 l/m 0,0 km/h (0 Bft) W-SW 250 0 min 7,4 C 11,5 C
12.09.2012 03:08 11,5 C 76 % 1012,7 hPa 0,0 l/m 0,0 km/h (0 Bft) W 260 0 min 7,4 C 11,5 C
12.09.2012 03:14 11,5 C 77 % 1012,7 hPa 0,0 l/m 0,6 km/h (0 Bft) W 275 0 min 7,6 C 11,5 C
12.09.2012 03:19 11,4 C 77 % 1012,7 hPa 0,0 l/m 0,6 km/h (0 Bft) W 265 0 min 7,5 C 11,4 C
12.09.2012 03:24 11,3 C 77 % 1012,7 hPa 0,0 l/m 0,0 km/h (0 Bft) W 260 0 min 7,4 C 11,3 C
12.09.2012 03:29 11,2 C 77 % 1012,7 hPa 0,0 l/m 0,0 km/h (0 Bft) W 260 0 min 7,3 C 11,2 C
12.09.2012 03:34 11,1 C 77 % 1012,7 hPa 0,0 l/m 0,0 km/h (0 Bft) W 260 0 min 7,2 C 11,1 C
12.09.2012 03:38 11,0 C 77 % 1012,7 hPa 0,0 l/m 0,0 km/h (0 Bft) W 270 0 min 7,1 C 11,0 C
12.09.2012 03:43 11,0 C 77 % 1012,7 hPa 0,0 l/m 0,0 km/h (0 Bft) W 265 0 min 7,1 C 11,0 C
12.09.2012 03:48 10,9 C 77 % 1012,7 hPa 0,0 l/m 0,0 km/h (0 Bft) W 260 0 min 7,0 C 10,9 C
12.09.2012 03:54 10,9 C 77 % 1012,7 hPa 0,0 l/m 0,0 km/h (0 Bft) W 260 0 min 7,0 C 10,9 C
12.09.2012 03:59 10,8 C 77 % 1012,7 hPa 0,0 l/m 0,0 km/h (0 Bft) W-NW 285 0 min 6,9 C 10,8 C
12.09.2012 04:04 10,8 C 78 % 1012,7 hPa 0,0 l/m 0,0 km/h (0 Bft) W 270 0 min 7,1 C 10,8 C
12.09.2012 04:09 10,8 C 78 % 1012,7 hPa 0,0 l/m 0,0 km/h (0 Bft) W 270 0 min 7,1 C 10,8 C
12.09.2012 04:13 10,8 C 78 % 1012,7 hPa 0,0 l/m 0,0 km/h (0 Bft) W 270 0 min 7,1 C 10,8 C
12.09.2012 04:18 10,7 C 77 % 1012,7 hPa 0,0 l/m 0,0 km/h (0 Bft) W 270 0 min 6,8 C 10,7 C
12.09.2012 04:23 10,7 C 77 % 1012,7 hPa 0,0 l/m 0,0 km/h (0 Bft) W 270 0 min 6,8 C 10,7 C
12.09.2012 04:29 10,7 C 77 % 1012,7 hPa 0,0 l/m 0,0 km/h (0 Bft) W 270 0 min 6,8 C 10,7 C
12.09.2012 04:34 10,6 C 77 % 1012,7 hPa 0,0 l/m 0,0 km/h (0 Bft) W 265 0 min 6,7 C 10,6 C
12.09.2012 04:39 10,6 C 77 % 1012,7 hPa 0,0 l/m 0,0 km/h (0 Bft) W 265 0 min 6,7 C 10,6 C
12.09.2012 04:44 10,6 C 77 % 1012,7 hPa 0,0 l/m 0,0 km/h (0 Bft) W 265 0 min 6,7 C 10,6 C
12.09.2012 04:48 10,6 C 77 % 1012,7 hPa 0,0 l/m 0,0 km/h (0 Bft) W 270 0 min 6,7 C 10,6 C
12.09.2012 04:53 10,6 C 77 % 1012,7 hPa 0,0 l/m 0,0 km/h (0 Bft) W 270 0 min 6,7 C 10,6 C
12.09.2012 04:58 10,6 C 78 % 1012,7 hPa 0,0 l/m 0,0 km/h (0 Bft) W 270 0 min 6,9 C 10,6 C
12.09.2012 05:04 10,6 C 79 % 1012,7 hPa 0,0 l/m 1,0 km/h (0 Bft) W 265 0 min 7,1 C 10,6 C
12.09.2012 05:09 10,6 C 79 % 1012,7 hPa 0,0 l/m 4,5 km/h (1 Bft) W-SW 250 0 min 7,1 C 10,6 C
12.09.2012 05:14 10,7 C 79 % 1012,7 hPa 0,0 l/m 0,0 km/h (0 Bft) W-NW 290 0 min 7,2 C 10,7 C
12.09.2012 05:19 10,7 C 79 % 1012,7 hPa 0,0 l/m 0,1 km/h (0 Bft) W-NW 295 0 min 7,2 C 10,7 C
12.09.2012 05:24 10,7 C 79 % 1012,7 hPa 0,0 l/m 0,3 km/h (0 Bft) W 270 0 min 7,2 C 10,7 C
12.09.2012 05:28 10,7 C 80 % 1012,7 hPa 0,0 l/m 0,2 km/h (0 Bft) W-SW 255 0 min 7,4 C 10,7 C
12.09.2012 05:33 10,6 C 80 % 1012,7 hPa 0,0 l/m 0,3 km/h (0 Bft) W-SW 255 0 min 7,3 C 10,6 C
12.09.2012 05:38 10,6 C 80 % 1012,7 hPa 0,0 l/m 0,0 km/h (0 Bft) W-SW 250 0 min 7,3 C 10,6 C
12.09.2012 05:44 10,5 C 80 % 1012,7 hPa 0,0 l/m 0,0 km/h (0 Bft) W-SW 250 0 min 7,2 C 10,5 C
12.09.2012 05:49 10,5 C 79 % 1012,7 hPa 0,0 l/m 0,5 km/h (0 Bft) W-SW 245 0 min 7,0 C 10,5 C
12.09.2012 05:54 10,5 C 79 % 1012,7 hPa 0,0 l/m 0,0 km/h (0 Bft) W-SW 250 0 min 7,0 C 10,5 C
12.09.2012 05:59 10,5 C 79 % 1012,7 hPa 0,0 l/m 0,0 km/h (0 Bft) W-SW 250 0 min 7,0 C 10,5 C
12.09.2012 06:03 10,4 C 79 % 1012,7 hPa 0,0 l/m 0,0 km/h (0 Bft) W-SW 250 0 min 6,9 C 10,4 C
12.09.2012 06:08 10,4 C 79 % 1012,7 hPa 0,0 l/m 0,0 km/h (0 Bft) W-SW 250 0 min 6,9 C 10,4 C
12.09.2012 06:13 10,4 C 79 % 1012,7 hPa 0,0 l/m 0,0 km/h (0 Bft) W-SW 250 0 min 6,9 C 10,4 C
12.09.2012 06:19 10,4 C 79 % 1012,7 hPa 0,0 l/m 0,0 km/h (0 Bft) W-SW 250 0 min 6,9 C 10,4 C
12.09.2012 06:24 10,3 C 79 % 1012,7 hPa 0,0 l/m 0,0 km/h (0 Bft) W 260 0 min 6,8 C 10,3 C
12.09.2012 06:29 10,3 C 79 % 1012,7 hPa 0,0 l/m 0,0 km/h (0 Bft) W 260 0 min 6,8 C 10,3 C
12.09.2012 06:34 10,2 C 79 % 1012,7 hPa 0,0 l/m 0,0 km/h (0 Bft) W-SW 255 0 min 6,7 C 10,2 C
12.09.2012 06:39 10,2 C 79 % 1012,7 hPa 0,0 l/m 0,0 km/h (0 Bft) W-SW 255 0 min 6,7 C 10,2 C
12.09.2012 06:43 10,2 C 79 % 1012,7 hPa 0,0 l/m 0,0 km/h (0 Bft) W-SW 250 0 min 6,7 C 10,2 C
12.09.2012 06:48 10,3 C 79 % 1012,7 hPa 0,0 l/m 0,0 km/h (0 Bft) W-SW 250 0 min 6,8 C 10,3 C
12.09.2012 06:54 10,2 C 78 % 1012,7 hPa 0,0 l/m 0,0 km/h (0 Bft) W-SW 250 0 min 6,5 C 10,2 C
12.09.2012 06:59 10,2 C 78 % 1012,7 hPa 0,0 l/m 0,0 km/h (0 Bft) W-SW 245 0 min 6,5 C 10,2 C
12.09.2012 07:04 10,2 C 79 % 1012,7 hPa 0,0 l/m 0,0 km/h (0 Bft) W-SW 245 0 min 6,7 C 10,2 C
12.09.2012 07:09 10,2 C 79 % 1012,7 hPa 0,0 l/m 0,0 km/h (0 Bft) W-SW 245 0 min 6,7 C 10,2 C
12.09.2012 07:14 10,1 C 78 % 1012,7 hPa 0,0 l/m 0,0 km/h (0 Bft) W-SW 245 0 min 6,4 C 10,1 C
12.09.2012 07:19 10,2 C 78 % 1012,7 hPa 0,0 l/m 0,0 km/h (0 Bft) W-SW 245 0 min 6,5 C 10,2 C
12.09.2012 07:24 10,2 C 78 % 1012,7 hPa 0,0 l/m 0,0 km/h (0 Bft) W-SW 245 0 min 6,5 C 10,2 C
12.09.2012 07:29 10,3 C 78 % 1012,7 hPa 0,0 l/m 0,0 km/h (0 Bft) W-SW 245 0 min 6,6 C 10,3 C
12.09.2012 07:34 10,4 C 79 % 1012,7 hPa 0,0 l/m 0,0 km/h (0 Bft) W-SW 245 0 min 6,9 C 10,4 C
12.09.2012 07:39 10,5 C 79 % 1012,7 hPa 0,0 l/m 0,0 km/h (0 Bft) W-SW 245 0 min 7,0 C 10,5 C
12.09.2012 07:44 10,6 C 79 % 1012,7 hPa 0,0 l/m 0,0 km/h (0 Bft) W-SW 245 0 min 7,1 C 10,6 C
12.09.2012 07:49 10,7 C 79 % 1012,7 hPa 0,0 l/m 0,0 km/h (0 Bft) W-SW 245 0 min 7,2 C 10,7 C
12.09.2012 07:54 10,8 C 79 % 1012,7 hPa 0,0 l/m 0,0 km/h (0 Bft) W-SW 245 0 min 7,3 C 10,8 C
12.09.2012 07:59 11,0 C 78 % 1012,7 hPa 0,0 l/m 0,0 km/h (0 Bft) W-SW 245 0 min 7,3 C 11,0 C
12.09.2012 08:04 11,2 C 78 % 1012,7 hPa 0,0 l/m 0,0 km/h (0 Bft) W-SW 245 0 min 7,5 C 11,2 C
12.09.2012 08:09 11,4 C 78 % 1012,7 hPa 0,0 l/m 0,0 km/h (0 Bft) W-SW 250 0 min 7,7 C 11,4 C
12.09.2012 08:14 11,4 C 78 % 1012,7 hPa 0,0 l/m 0,0 km/h (0 Bft) W-SW 245 0 min 7,7 C 11,4 C
12.09.2012 08:19 11,4 C 78 % 1012,7 hPa 0,0 l/m 0,0 km/h (0 Bft) W-SW 245 0 min 7,7 C 11,4 C
12.09.2012 08:24 11,5 C 78 % 1012,7 hPa 0,0 l/m 0,0 km/h (0 Bft) W-SW 245 0 min 7,8 C 11,5 C
12.09.2012 08:29 11,6 C 78 % 1012,7 hPa 0,0 l/m 0,0 km/h (0 Bft) W-SW 245 0 min 7,9 C 11,6 C
12.09.2012 08:34 11,9 C 78 % 1012,7 hPa 0,0 l/m 0,0 km/h (0 Bft) W-SW 250 0 min 8,2 C 11,9 C
12.09.2012 08:39 12,1 C 78 % 1012,7 hPa 0,0 l/m 0,0 km/h (0 Bft) W-SW 250 0 min 8,4 C 12,1 C
12.09.2012 08:44 12,2 C 78 % 1012,7 hPa 0,0 l/m 0,0 km/h (0 Bft) W-SW 245 0 min 8,5 C 12,2 C
12.09.2012 08:49 12,5 C 78 % 1012,7 hPa 0,0 l/m 0,0 km/h (0 Bft) W-SW 245 0 min 8,8 C 12,5 C
12.09.2012 08:54 12,7 C 78 % 1012,7 hPa 0,0 l/m 0,0 km/h (0 Bft) W-SW 245 0 min 9,0 C 12,7 C
12.09.2012 08:59 12,9 C 77 % 1012,7 hPa 0,0 l/m 0,8 km/h (0 Bft) SW 230 0 min 9,0 C 12,9 C
12.09.2012 09:04 12,9 C 77 % 1012,7 hPa 0,0 l/m 0,1 km/h (0 Bft) W 260 0 min 9,0 C 12,9 C
12.09.2012 09:09 13,2 C 77 % 1012,7 hPa 0,0 l/m 4,2 km/h (1 Bft) W 265 0 min 9,3 C 13,2 C
12.09.2012 09:14 13,6 C 77 % 1012,7 hPa 0,0 l/m 5,0 km/h (1 Bft) SW 225 0 min 9,6 C 13,6 C
12.09.2012 09:19 13,6 C 77 % 1012,7 hPa 0,0 l/m 7,4 km/h (2 Bft) W-SW 255 0 min 9,6 C 13,0 C
12.09.2012 09:24 13,7 C 74 % 1012,7 hPa 0,0 l/m 7,4 km/h (2 Bft) W-SW 255 0 min 9,2 C 13,1 C
12.09.2012 09:29 13,7 C 73 % 1012,7 hPa 0,0 l/m 13,2 km/h (3 Bft) W-NW 285 0 min 8,9 C 10,3 C
12.09.2012 09:33 13,8 C 73 % 1012,7 hPa 0,0 l/m 6,5 km/h (2 Bft) W-SW 250 0 min 9,0 C 13,8 C
12.09.2012 09:38 14,1 C 71 % 1012,7 hPa 0,0 l/m 13,2 km/h (3 Bft) NW 305 0 min 8,9 C 10,8 C
12.09.2012 09:44 14,4 C 71 % 1012,7 hPa 0,0 l/m 8,7 km/h (2 Bft) W 280 0 min 9,2 C 13,1 C
12.09.2012 09:49 14,5 C 70 % 1012,7 hPa 0,0 l/m 11,6 km/h (2 Bft) W-NW 295 0 min 9,1 C 11,9 C
12.09.2012 09:54 14,2 C 69 % 1012,7 hPa 0,0 l/m 14,6 km/h (3 Bft) N-NW 330 0 min 8,6 C 10,4 C
12.09.2012 09:59 13,9 C 69 % 1012,7 hPa 0,0 l/m 14,8 km/h (3 Bft) NW 315 0 min 8,3 C 9,9 C
12.09.2012 10:04 14,0 C 69 % 1012,7 hPa 0,0 l/m 16,6 km/h (3 Bft) NW 315 0 min 8,4 C 9,4 C
12.09.2012 10:09 14,0 C 68 % 1012,7 hPa 0,0 l/m 15,0 km/h (3 Bft) NW 310 0 min 8,2 C 10,0 C
12.09.2012 10:14 13,9 C 67 % 1012,7 hPa 0,0 l/m 12,8 km/h (3 Bft) N-NW 330 0 min 7,9 C 10,7 C
12.09.2012 10:19 14,0 C 67 % 1012,7 hPa 0,0 l/m 17,2 km/h (3 Bft) N-NW 345 0 min 8,0 C 9,3 C
12.09.2012 10:24 14,1 C 67 % 1012,7 hPa 0,0 l/m 11,1 km/h (2 Bft) NW 310 0 min 8,1 C 11,6 C
12.09.2012 10:29 14,3 C 66 % 1012,7 hPa 0,0 l/m 11,1 km/h (2 Bft) NW 320 0 min 8,0 C 11,8 C
12.09.2012 10:34 14,5 C 66 % 1013,7 hPa 0,0 l/m 6,5 km/h (2 Bft) W 270 0 min 8,2 C 14,5 C
12.09.2012 10:39 15,0 C 63 % 1013,7 hPa 0,0 l/m 13,6 km/h (3 Bft) NW 315 0 min 8,0 C 11,7 C
12.09.2012 10:44 14,8 C 62 % 1013,7 hPa 0,0 l/m 12,5 km/h (3 Bft) NW 315 0 min 7,6 C 11,8 C
12.09.2012 10:49 14,6 C 61 % 1013,7 hPa 0,0 l/m 16,1 km/h (3 Bft) N-NW 330 0 min 7,2 C 10,3 C
12.09.2012 10:54 14,5 C 61 % 1013,7 hPa 0,0 l/m 15,1 km/h (3 Bft) NW 325 0 min 7,1 C 10,6 C
12.09.2012 10:59 14,4 C 61 % 1013,7 hPa 0,0 l/m 21,6 km/h (4 Bft) N-NW 340 0 min 7,0 C 8,6 C
12.09.2012 11:04 14,3 C 61 % 1013,7 hPa 0,0 l/m 18,6 km/h (3 Bft) NW 325 0 min 6,9 C 9,2 C
12.09.2012 11:09 14,5 C 61 % 1013,7 hPa 0,0 l/m 16,9 km/h (3 Bft) NW 325 0 min 7,1 C 10,0 C
12.09.2012 11:14 14,4 C 61 % 1013,7 hPa 0,0 l/m 20,4 km/h (4 Bft) N-NW 335 0 min 7,0 C 8,9 C
12.09.2012 11:19 14,0 C 60 % 1013,7 hPa 0,0 l/m 22,4 km/h (4 Bft) N-NW 340 0 min 6,4 C 7,8 C
12.09.2012 11:24 13,7 C 62 % 1013,7 hPa 0,0 l/m 16,1 km/h (3 Bft) N-NW 335 0 min 6,6 C 9,2 C
12.09.2012 11:29 13,6 C 62 % 1013,7 hPa 0,0 l/m 16,0 km/h (3 Bft) N-NW 345 0 min 6,5 C 9,2 C
12.09.2012 11:34 13,5 C 63 % 1013,7 hPa 0,0 l/m 12,1 km/h (2 Bft) N-NW 340 0 min 6,6 C 10,5 C
12.09.2012 11:39 13,7 C 63 % 1013,7 hPa 0,0 l/m 16,7 km/h (3 Bft) N-NW 340 0 min 6,8 C 9,0 C
12.09.2012 11:44 13,8 C 63 % 1013,7 hPa 0,0 l/m 16,5 km/h (3 Bft) NW 320 0 min 6,9 C 9,2 C
12.09.2012 11:49 14,1 C 62 % 1013,7 hPa 0,0 l/m 11,3 km/h (2 Bft) W-NW 285 0 min 6,9 C 11,5 C
12.09.2012 11:54 14,1 C 61 % 1013,7 hPa 0,0 l/m 17,0 km/h (3 Bft) N-NW 330 0 min 6,7 C 9,4 C
12.09.2012 11:59 14,2 C 61 % 1013,7 hPa 0,0 l/m 15,7 km/h (3 Bft) NW 325 0 min 6,8 C 10,0 C
12.09.2012 12:04 14,4 C 61 % 1013,7 hPa 0,0 l/m 11,3 km/h (2 Bft) W-NW 285 0 min 7,0 C 11,9 C
12.09.2012 12:09 14,5 C 60 % 1013,7 hPa 0,0 l/m 11,7 km/h (2 Bft) NW 320 0 min 6,8 C 11,8 C
12.09.2012 12:14 14,5 C 59 % 1013,7 hPa 0,0 l/m 17,0 km/h (3 Bft) N 350 0 min 6,6 C 9,9 C
12.09.2012 12:19 14,7 C 60 % 1013,7 hPa 0,0 l/m 16,2 km/h (3 Bft) N-NW 340 0 min 7,0 C 10,4 C
12.09.2012 12:24 15,0 C 58 % 1012,7 hPa 0,0 l/m 15,0 km/h (3 Bft) N-NW 330 0 min 6,8 C 11,2 C
12.09.2012 12:29 15,3 C 56 % 1012,7 hPa 0,0 l/m 19,0 km/h (3 Bft) NW 320 0 min 6,6 C 10,4 C
12.09.2012 12:34 15,5 C 57 % 1012,7 hPa 0,0 l/m 3,5 km/h (1 Bft) W-NW 295 0 min 7,0 C 15,5 C
12.09.2012 12:39 16,3 C 57 % 1012,7 hPa 0,0 l/m 1,6 km/h (1 Bft) NW 320 0 min 7,8 C 16,3 C
12.09.2012 12:44 16,5 C 54 % 1012,7 hPa 0,0 l/m 15,1 km/h (3 Bft) N-NW 330 0 min 7,2 C 13,0 C
12.09.2012 12:49 16,6 C 54 % 1012,7 hPa 0,0 l/m 13,3 km/h (3 Bft) N-NW 335 0 min 7,3 C 13,7 C
12.09.2012 12:54 16,6 C 53 % 1012,7 hPa 0,0 l/m 15,4 km/h (3 Bft) N-NW 335 0 min 7,0 C 13,0 C
12.09.2012 12:59 16,8 C 51 % 1012,7 hPa 0,0 l/m 16,6 km/h (3 Bft) N-NW 330 0 min 6,6 C 12,9 C
12.09.2012 13:04 16,6 C 50 % 1012,7 hPa 0,0 l/m 15,4 km/h (3 Bft) N-NW 335 0 min 6,1 C 13,0 C
12.09.2012 13:09 17,0 C 50 % 1012,7 hPa 0,0 l/m 13,8 km/h (3 Bft) N-NW 335 0 min 6,5 C 14,0 C
12.09.2012 13:14 16,9 C 50 % 1012,7 hPa 0,0 l/m 22,7 km/h (4 Bft) N 350 0 min 6,4 C 11,6 C
12.09.2012 13:19 16,6 C 51 % 1012,7 hPa 0,0 l/m 17,0 km/h (3 Bft) N-NW 340 0 min 6,4 C 12,6 C
12.09.2012 13:24 16,6 C 48 % 1012,7 hPa 0,0 l/m 14,8 km/h (3 Bft) N 350 0 min 5,5 C 13,2 C
12.09.2012 13:28 16,5 C 48 % 1012,7 hPa 0,0 l/m 15,7 km/h (3 Bft) N-NW 330 0 min 5,5 C 12,8 C
12.09.2012 13:33 16,5 C 48 % 1012,7 hPa 0,0 l/m 14,2 km/h (3 Bft) N 350 0 min 5,5 C 13,3 C
12.09.2012 13:38 16,4 C 49 % 1012,7 hPa 0,0 l/m 16,3 km/h (3 Bft) N 350 0 min 5,7 C 12,5 C
12.09.2012 13:43 15,9 C 49 % 1012,7 hPa 0,0 l/m 19,6 km/h (3 Bft) N 350 0 min 5,2 C 11,0 C
12.09.2012 13:48 15,1 C 47 % 1012,7 hPa 0,0 l/m 23,8 km/h (4 Bft) N 355 0 min 3,9 C 9,0 C
12.09.2012 13:53 14,4 C 49 % 1012,7 hPa 0,0 l/m 23,8 km/h (4 Bft) N 355 0 min 3,8 C 8,1 C
12.09.2012 13:58 14,3 C 50 % 1012,7 hPa 0,0 l/m 23,0 km/h (4 Bft) N-NW 345 0 min 4,0 C 8,1 C
12.09.2012 14:03 13,9 C 52 % 1012,7 hPa 0,0 l/m 27,3 km/h (4 Bft) N 350 0 min 4,2 C 6,6 C
12.09.2012 14:08 13,8 C 53 % 1012,7 hPa 0,0 l/m 15,5 km/h (3 Bft) N 350 0 min 4,4 C 9,6 C
12.09.2012 14:13 13,9 C 54 % 1012,7 hPa 0,0 l/m 19,8 km/h (3 Bft) N 350 0 min 4,7 C 8,4 C
12.09.2012 14:18 14,0 C 54 % 1012,7 hPa 0,0 l/m 22,7 km/h (4 Bft) N 350 0 min 4,8 C 7,8 C
12.09.2012 14:23 14,3 C 55 % 1012,7 hPa 0,0 l/m 12,9 km/h (3 Bft) N 350 0 min 5,4 C 11,1 C
12.09.2012 14:28 14,3 C 55 % 1012,7 hPa 0,0 l/m 11,7 km/h (2 Bft) N-NW 340 0 min 5,4 C 11,6 C
12.09.2012 14:33 14,4 C 55 % 1012,7 hPa 0,0 l/m 17,5 km/h (3 Bft) N-NW 345 0 min 5,5 C 9,7 C
12.09.2012 14:38 14,4 C 57 % 1012,7 hPa 0,0 l/m 17,0 km/h (3 Bft) N 350 0 min 6,0 C 9,8 C
12.09.2012 14:43 14,4 C 57 % 1012,7 hPa 0,0 l/m 18,9 km/h (3 Bft) N-NW 340 0 min 6,0 C 9,3 C
12.09.2012 14:48 14,4 C 57 % 1012,7 hPa 0,0 l/m 11,6 km/h (2 Bft) N-NW 335 0 min 6,0 C 11,7 C
12.09.2012 14:53 14,3 C 55 % 1012,7 hPa 0,0 l/m 18,0 km/h (3 Bft) N-NW 345 0 min 5,4 C 9,4 C
12.09.2012 14:58 14,4 C 56 % 1012,7 hPa 0,0 l/m 14,1 km/h (3 Bft) N-NW 335 0 min 5,7 C 10,8 C
12.09.2012 15:03 14,4 C 55 % 1012,7 hPa 0,0 l/m 14,2 km/h (3 Bft) N 350 0 min 5,5 C 10,7 C
12.09.2012 15:08 14,4 C 55 % 1012,7 hPa 0,0 l/m 16,3 km/h (3 Bft) N-NW 340 0 min 5,5 C 10,0 C
12.09.2012 15:14 14,4 C 54 % 1012,7 hPa 0,0 l/m 14,3 km/h (3 Bft) N-NW 345 0 min 5,2 C 10,7 C
12.09.2012 15:19 14,4 C 53 % 1012,7 hPa 0,0 l/m 15,1 km/h (3 Bft) N-NW 340 0 min 4,9 C 10,4 C
12.09.2012 15:24 14,3 C 54 % 1012,7 hPa 0,0 l/m 14,3 km/h (3 Bft) N-NW 335 0 min 5,1 C 10,6 C
12.09.2012 15:29 14,5 C 55 % 1012,7 hPa 0,0 l/m 19,6 km/h (3 Bft) N 350 0 min 5,6 C 9,2 C
12.09.2012 15:34 14,6 C 55 % 1012,7 hPa 0,0 l/m 15,8 km/h (3 Bft) N-NW 335 0 min 5,7 C 10,4 C
12.09.2012 15:39 14,7 C 55 % 1012,7 hPa 0,0 l/m 18,0 km/h (3 Bft) N-NW 340 0 min 5,8 C 9,9 C
12.09.2012 15:44 15,0 C 55 % 1012,7 hPa 0,0 l/m 1,0 km/h (0 Bft) NW 305 0 min 6,0 C 15,0 C
12.09.2012 15:49 15,1 C 55 % 1012,7 hPa 0,0 l/m 13,4 km/h (3 Bft) N-NW 345 0 min 6,1 C 11,9 C
12.09.2012 15:54 14,8 C 55 % 1012,7 hPa 0,0 l/m 26,8 km/h (4 Bft) N 355 0 min 5,8 C 8,0 C
12.09.2012 15:59 14,7 C 56 % 1012,7 hPa 0,0 l/m 22,0 km/h (4 Bft) N-NW 335 0 min 6,0 C 8,9 C
12.09.2012 16:04 14,7 C 56 % 1012,7 hPa 0,0 l/m 8,3 km/h (2 Bft) N-NW 335 0 min 6,0 C 13,6 C
12.09.2012 16:09 15,1 C 56 % 1012,7 hPa 0,0 l/m 8,3 km/h (2 Bft) N-NW 335 0 min 6,4 C 14,0 C
12.09.2012 16:14 15,2 C 54 % 1012,7 hPa 0,0 l/m 17,7 km/h (3 Bft) NW 315 0 min 6,0 C 10,6 C
12.09.2012 16:19 15,1 C 54 % 1012,7 hPa 0,0 l/m 12,0 km/h (2 Bft) NW 320 0 min 5,9 C 12,4 C
12.09.2012 16:24 14,9 C 54 % 1012,7 hPa 0,0 l/m 17,8 km/h (3 Bft) N-NW 340 0 min 5,7 C 10,2 C
12.09.2012 16:29 14,7 C 53 % 1012,7 hPa 0,0 l/m 16,5 km/h (3 Bft) N-NW 340 0 min 5,2 C 10,3 C
12.09.2012 16:34 14,5 C 54 % 1012,7 hPa 0,0 l/m 14,4 km/h (3 Bft) N-NW 340 0 min 5,3 C 10,8 C
12.09.2012 16:39 14,7 C 54 % 1012,7 hPa 0,0 l/m 11,4 km/h (2 Bft) N-NW 345 0 min 5,5 C 12,2 C
12.09.2012 16:44 14,8 C 54 % 1012,7 hPa 0,0 l/m 13,6 km/h (3 Bft) N-NW 335 0 min 5,6 C 11,4 C
12.09.2012 16:49 14,9 C 53 % 1012,7 hPa 0,0 l/m 10,0 km/h (2 Bft) N-NW 330 0 min 5,4 C 13,0 C
12.09.2012 16:54 14,5 C 52 % 1012,7 hPa 0,0 l/m 13,6 km/h (3 Bft) N-NW 340 0 min 4,8 C 11,1 C
12.09.2012 16:59 14,5 C 53 % 1012,7 hPa 0,0 l/m 15,0 km/h (3 Bft) W-NW 295 0 min 5,0 C 10,6 C
12.09.2012 17:04 14,4 C 53 % 1012,7 hPa 0,0 l/m 15,6 km/h (3 Bft) NW 320 0 min 4,9 C 10,3 C
12.09.2012 17:09 14,2 C 54 % 1012,7 hPa 0,0 l/m 0,1 km/h (0 Bft) NW 315 0 min 5,0 C 14,2 C
12.09.2012 17:14 14,1 C 54 % 1012,7 hPa 0,0 l/m 13,5 km/h (3 Bft) N-NW 340 0 min 4,9 C 10,6 C
12.09.2012 17:19 14,1 C 54 % 1012,7 hPa 0,0 l/m 15,6 km/h (3 Bft) N 350 0 min 4,9 C 9,9 C
12.09.2012 17:24 14,5 C 53 % 1012,7 hPa 0,0 l/m 17,6 km/h (3 Bft) N-NW 345 0 min 5,0 C 9,8 C
12.09.2012 17:29 14,6 C 53 % 1012,7 hPa 0,0 l/m 15,3 km/h (3 Bft) N 350 0 min 5,1 C 10,6 C
12.09.2012 17:34 14,8 C 49 % 1012,7 hPa 0,0 l/m 25,4 km/h (4 Bft) N 350 0 min 4,2 C 8,3 C
12.09.2012 17:39 15,4 C 49 % 1012,7 hPa 0,0 l/m 13,5 km/h (3 Bft) N 350 0 min 4,7 C 12,2 C
12.09.2012 17:44 15,8 C 48 % 1012,7 hPa 0,0 l/m 23,5 km/h (4 Bft) N 350 0 min 4,8 C 10,0 C
12.09.2012 17:49 16,2 C 43 % 1012,7 hPa 0,0 l/m 28,5 km/h (4 Bft) N 350 0 min 3,6 C 9,6 C
12.09.2012 17:54 16,1 C 42 % 1012,7 hPa 0,0 l/m 20,2 km/h (4 Bft) N-NW 340 0 min 3,2 C 11,1 C
12.09.2012 17:59 15,6 C 42 % 1012,7 hPa 0,0 l/m 23,8 km/h (4 Bft) N 350 0 min 2,7 C 9,7 C
12.09.2012 18:04 15,3 C 43 % 1012,7 hPa 0,0 l/m 23,8 km/h (4 Bft) N 350 0 min 2,8 C 9,3 C
12.09.2012 18:09 15,2 C 45 % 1012,7 hPa 0,0 l/m 22,6 km/h (4 Bft) N 350 0 min 3,4 C 9,4 C
12.09.2012 18:14 14,4 C 46 % 1012,7 hPa 0,0 l/m 23,9 km/h (4 Bft) N-NW 345 0 min 2,9 C 8,0 C
12.09.2012 18:19 14,1 C 47 % 1012,7 hPa 0,0 l/m 20,3 km/h (4 Bft) N-NW 330 0 min 3,0 C 8,5 C
12.09.2012 18:24 13,6 C 50 % 1012,7 hPa 0,0 l/m 16,4 km/h (3 Bft) N 350 0 min 3,4 C 9,0 C
12.09.2012 18:29 13,3 C 52 % 1012,7 hPa 0,0 l/m 15,7 km/h (3 Bft) N-NW 345 0 min 3,7 C 8,9 C
12.09.2012 18:34 13,1 C 52 % 1012,7 hPa 0,0 l/m 25,3 km/h (4 Bft) N 350 0 min 3,5 C 6,0 C
12.09.2012 18:38 12,9 C 53 % 1012,7 hPa 0,0 l/m 19,1 km/h (3 Bft) N 350 0 min 3,6 C 7,3 C
12.09.2012 18:43 12,9 C 54 % 1012,7 hPa 0,0 l/m 18,3 km/h (3 Bft) N 350 0 min 3,8 C 7,5 C
12.09.2012 18:49 12,6 C 55 % 1012,7 hPa 0,0 l/m 18,8 km/h (3 Bft) N 350 0 min 3,8 C 7,0 C
12.09.2012 18:54 12,5 C 55 % 1012,7 hPa 0,0 l/m 15,5 km/h (3 Bft) N 355 0 min 3,7 C 8,0 C
12.09.2012 18:59 12,4 C 56 % 1012,7 hPa 0,0 l/m 16,4 km/h (3 Bft) N-NW 335 0 min 3,9 C 7,5 C
12.09.2012 19:04 12,4 C 56 % 1013,7 hPa 0,0 l/m 12,5 km/h (3 Bft) N-NW 340 0 min 3,9 C 9,1 C
12.09.2012 19:09 12,4 C 56 % 1013,7 hPa 0,0 l/m 15,0 km/h (3 Bft) N-NW 345 0 min 3,9 C 8,0 C
12.09.2012 19:13 12,1 C 57 % 1013,7 hPa 0,0 l/m 10,8 km/h (2 Bft) N-NW 335 0 min 3,8 C 9,5 C
12.09.2012 19:18 11,8 C 59 % 1013,7 hPa 0,0 l/m 10,6 km/h (2 Bft) N-NW 330 0 min 4,1 C 9,3 C
12.09.2012 19:24 11,6 C 59 % 1013,7 hPa 0,0 l/m 9,0 km/h (2 Bft) N-NW 330 0 min 3,9 C 9,9 C
12.09.2012 19:29 11,4 C 59 % 1013,7 hPa 0,0 l/m 10,6 km/h (2 Bft) N-NW 330 0 min 3,7 C 8,8 C
12.09.2012 19:34 11,3 C 60 % 1013,7 hPa 0,0 l/m 14,1 km/h (3 Bft) N 350 0 min 3,8 C 7,1 C
12.09.2012 19:39 11,3 C 60 % 1013,7 hPa 0,0 l/m 9,4 km/h (2 Bft) N-NW 330 0 min 3,8 C 9,4 C
12.09.2012 19:44 11,1 C 61 % 1013,7 hPa 0,0 l/m 7,8 km/h (2 Bft) W-NW 285 0 min 3,9 C 10,1 C
12.09.2012 19:49 11,0 C 60 % 1013,7 hPa 0,0 l/m 5,7 km/h (1 Bft) W 270 0 min 3,5 C 11,0 C
12.09.2012 19:53 10,8 C 61 % 1013,7 hPa 0,0 l/m 0,1 km/h (0 Bft) W-NW 300 0 min 3,6 C 10,8 C
12.09.2012 19:58 10,7 C 61 % 1013,7 hPa 0,0 l/m 7,6 km/h (2 Bft) NW 315 0 min 3,5 C 9,9 C
12.09.2012 20:04 10,6 C 63 % 1013,7 hPa 0,0 l/m 9,8 km/h (2 Bft) N-NW 330 0 min 3,9 C 8,4 C
12.09.2012 20:09 10,5 C 64 % 1013,7 hPa 0,0 l/m 10,8 km/h (2 Bft) N-NW 340 0 min 4,0 C 7,7 C
12.09.2012 20:14 10,5 C 64 % 1013,7 hPa 0,0 l/m 10,9 km/h (2 Bft) N 350 0 min 4,0 C 7,7 C
12.09.2012 20:19 10,4 C 65 % 1013,7 hPa 0,0 l/m 10,5 km/h (2 Bft) N-NW 340 0 min 4,1 C 7,8 C
12.09.2012 20:24 10,3 C 65 % 1013,7 hPa 0,0 l/m 10,5 km/h (2 Bft) N-NW 340 0 min 4,0 C 7,6 C
12.09.2012 20:28 10,3 C 65 % 1013,7 hPa 0,0 l/m 6,1 km/h (2 Bft) NW 310 0 min 4,0 C 10,3 C
12.09.2012 20:33 10,1 C 65 % 1013,7 hPa 0,0 l/m 7,4 km/h (2 Bft) NW 305 0 min 3,8 C 9,4 C
12.09.2012 20:39 10,0 C 65 % 1013,7 hPa 0,0 l/m 8,3 km/h (2 Bft) NW 310 0 min 3,7 C 8,7 C
12.09.2012 20:44 9,9 C 67 % 1013,7 hPa 0,0 l/m 6,8 km/h (2 Bft) W-NW 300 0 min 4,1 C 9,6 C
12.09.2012 20:49 9,8 C 67 % 1013,7 hPa 0,0 l/m 5,4 km/h (1 Bft) W 275 0 min 4,0 C 9,8 C
12.09.2012 20:54 9,6 C 66 % 1013,7 hPa 0,0 l/m 0,0 km/h (0 Bft) W-SW 250 0 min 3,6 C 9,6 C
12.09.2012 20:59 9,5 C 67 % 1013,7 hPa 0,0 l/m 0,4 km/h (0 Bft) W 275 0 min 3,7 C 9,5 C
12.09.2012 21:03 9,5 C 67 % 1013,7 hPa 0,0 l/m 2,2 km/h (1 Bft) W-NW 285 0 min 3,7 C 9,5 C
12.09.2012 21:08 9,4 C 67 % 1013,7 hPa 0,0 l/m 0,1 km/h (0 Bft) W-SW 255 0 min 3,6 C 9,4 C
12.09.2012 21:14 9,2 C 67 % 1013,7 hPa 0,0 l/m 0,0 km/h (0 Bft) W-SW 245 0 min 3,4 C 9,2 C
12.09.2012 21:19 9,1 C 66 % 1013,7 hPa 0,0 l/m 0,0 km/h (0 Bft) W-SW 245 0 min 3,1 C 9,1 C
12.09.2012 21:24 8,9 C 67 % 1013,7 hPa 0,0 l/m 0,0 km/h (0 Bft) W-SW 240 0 min 3,1 C 8,9 C
12.09.2012 21:29 8,6 C 66 % 1013,7 hPa 0,0 l/m 0,0 km/h (0 Bft) W-SW 240 0 min 2,6 C 8,6 C
12.09.2012 21:34 8,5 C 66 % 1013,7 hPa 0,0 l/m 0,0 km/h (0 Bft) W-SW 240 0 min 2,5 C 8,5 C
12.09.2012 21:39 8,3 C 66 % 1013,7 hPa 0,0 l/m 0,0 km/h (0 Bft) W-SW 240 0 min 2,3 C 8,3 C
12.09.2012 21:44 8,1 C 66 % 1013,7 hPa 0,0 l/m 0,0 km/h (0 Bft) W-SW 240 0 min 2,1 C 8,1 C
12.09.2012 21:49 7,9 C 67 % 1013,7 hPa 0,0 l/m 0,0 km/h (0 Bft) W-SW 240 0 min 2,2 C 7,9 C
12.09.2012 21:54 7,8 C 67 % 1013,7 hPa 0,0 l/m 0,0 km/h (0 Bft) W-SW 240 0 min 2,1 C 7,8 C
12.09.2012 21:59 7,7 C 67 % 1013,7 hPa 0,0 l/m 0,0 km/h (0 Bft) W-SW 240 0 min 2,0 C 7,7 C
12.09.2012 22:04 7,6 C 67 % 1013,7 hPa 0,0 l/m 0,0 km/h (0 Bft) W-SW 240 0 min 1,9 C 7,6 C
12.09.2012 22:09 7,5 C 67 % 1013,7 hPa 0,0 l/m 0,0 km/h (0 Bft) W-SW 240 0 min 1,8 C 7,5 C
12.09.2012 22:14 7,4 C 67 % 1013,7 hPa 0,0 l/m 0,0 km/h (0 Bft) W-SW 240 0 min 1,7 C 7,4 C
12.09.2012 22:19 7,2 C 67 % 1013,7 hPa 0,0 l/m 0,0 km/h (0 Bft) W-SW 240 0 min 1,5 C 7,2 C
12.09.2012 22:24 7,1 C 67 % 1013,7 hPa 0,0 l/m 0,0 km/h (0 Bft) W-SW 240 0 min 1,4 C 7,1 C
12.09.2012 22:29 7,0 C 67 % 1013,7 hPa 0,0 l/m 0,0 km/h (0 Bft) W-SW 240 0 min 1,3 C 7,0 C
12.09.2012 22:34 6,9 C 68 % 1013,7 hPa 0,0 l/m 0,0 km/h (0 Bft) W-SW 240 0 min 1,4 C 6,9 C
12.09.2012 22:39 6,9 C 68 % 1013,7 hPa 0,0 l/m 0,0 km/h (0 Bft) W-SW 240 0 min 1,4 C 6,9 C
12.09.2012 22:44 6,8 C 68 % 1013,7 hPa 0,0 l/m 0,0 km/h (0 Bft) W-SW 240 0 min 1,3 C 6,8 C
12.09.2012 22:49 6,7 C 69 % 1013,7 hPa 0,0 l/m 0,0 km/h (0 Bft) W-SW 240 0 min 1,4 C 6,7 C
12.09.2012 22:54 6,6 C 69 % 1013,7 hPa 0,0 l/m 0,0 km/h (0 Bft) W-SW 240 0 min 1,3 C 6,6 C
12.09.2012 22:59 6,5 C 68 % 1013,7 hPa 0,0 l/m 0,0 km/h (0 Bft) W-SW 240 0 min 1,0 C 6,5 C
12.09.2012 23:04 6,3 C 69 % 1013,7 hPa 0,0 l/m 0,0 km/h (0 Bft) W-SW 240 0 min 1,0 C 6,3 C
12.09.2012 23:09 6,2 C 69 % 1013,7 hPa 0,0 l/m 0,0 km/h (0 Bft) W-SW 240 0 min 0,9 C 6,2 C
12.09.2012 23:14 6,2 C 69 % 1013,7 hPa 0,0 l/m 0,0 km/h (0 Bft) W-SW 240 0 min 0,9 C 6,2 C
12.09.2012 23:19 6,0 C 69 % 1013,7 hPa 0,0 l/m 0,0 km/h (0 Bft) W-SW 240 0 min 0,8 C 6,0 C
12.09.2012 23:24 5,9 C 70 % 1013,7 hPa 0,0 l/m 0,0 km/h (0 Bft) W-SW 240 0 min 0,9 C 5,9 C
12.09.2012 23:29 5,8 C 70 % 1013,7 hPa 0,0 l/m 0,0 km/h (0 Bft) W-SW 240 0 min 0,8 C 5,8 C
12.09.2012 23:34 5,7 C 70 % 1013,7 hPa 0,0 l/m 0,0 km/h (0 Bft) W-SW 240 0 min 0,7 C 5,7 C
12.09.2012 23:39 5,6 C 70 % 1013,7 hPa 0,0 l/m 0,0 km/h (0 Bft) W-SW 255 0 min 0,6 C 5,6 C
12.09.2012 23:44 5,6 C 70 % 1013,7 hPa 0,0 l/m 0,0 km/h (0 Bft) W-SW 250 0 min 0,6 C 5,6 C
12.09.2012 23:49 5,5 C 70 % 1013,7 hPa 0,0 l/m 0,0 km/h (0 Bft) W-SW 250 0 min 0,5 C 5,5 C
12.09.2012 23:54 5,4 C 70 % 1013,7 hPa 0,0 l/m 0,0 km/h (0 Bft) W-SW 245 0 min 0,4 C 5,4 C
12.09.2012 23:58 5,4 C 70 % 1013,7 hPa 0,0 l/m 0,0 km/h (0 Bft) W-SW 245 0 min 0,4 C 5,4 C
_ Min-Zeit 00:03 17:54 00:19 - 00:14 - - - 23:54 23:54
Minimum _ 0,0 C 42 % 1012,7 hPa - 0,0 km/h (0 Bft) - - - 0,4 C 5,4 C
_ Max-Zeit 13:09 05:28 00:03 00:03 17:49 - - 00:03 09:14 12:39
Maximum _ 17,0 C 80 % 1013,7 hPa 0,0 l/m 28,5 km/h
N (4 Bft)
- - 0 min 9,6 C 16,3 C
Durchschnitt _ 12,1 C 66 % 1013,0 hPa #0,0 l/m 7,3 km/h (2 Bft) N-NW - #0 min. 5,8 C 10,3 C